Regional Weather Roundup
Issued by NWS Little Rock, AR

Home | Current Version | Previous Version | Graphics & Text | Print | Product List | Glossary On
Versions: 1 2 3 4 5 6 7 8 9 10 11 12 13 14 15 16 17 18 19 20 21 22 23 24 25 26 27 28 29 30 31 32 33 34 35 36 37 38 39 40 41 42 43 44 45 46 47 48 49 50
678
ASUS44 KLZK 081605
RWRLZK

WEATHER ROUNDUP FOR ARKANSAS
NATIONAL WEATHER SERVICE LITTLE ROCK AR
1000 AM CST MON FEB 08 2016

NOTE: "FAIR" INDICATES FEW OR NO CLOUDS BELOW 12,000 FEET WITH NO
SIGNIFICANT WEATHER AND/OR OBSTRUCTIONS TO VISIBILITY.

ARZ001-003-010-029-081700-
NORTHWEST ARKANSAS

CITY           SKY/WX    TMP DP  RH WIND       PRES   REMARKS
FAYETTEVILLE   CLOUDY    37  19  48 NW15G30   30.08S
FORT SMITH     PTSUNNY   42  15  33 NW18G32   30.15S
HARRISON       CLOUDY    37  17  44 W20G33    29.98S
BENTONVILLE    CLOUDY    37  16  41 NW20G31   30.08R
ROGERS         CLOUDY    36  18  48 NW22G30   30.06R
SILOAM SPGS    CLOUDY    37  16  41 NW26G33   30.10R
HIGHFILL       CLOUDY    37  19  48 NW23G33   30.07R
SPRINGDALE     CLOUDY    37  18  44 NW15G28   30.08S
$$

ARZ004-005-016-081700-
NORTH CENTRAL ARKANSAS

CITY           SKY/WX    TMP DP  RH WIND       PRES   REMARKS
BATESVILLE     CLOUDY    41  18  38 W13G22    29.99R
FLIPPIN        CLOUDY   N/A N/A N/A NW16G28   29.96S
MTN HOME       CLOUDY    39  17  41 NW13G25   29.96S
$$

ARZ040-041-081700-
WEST CENTRAL ARKANSAS

CITY           SKY/WX    TMP DP  RH WIND       PRES   REMARKS
MENA           MOSUNNY   43  19  39 W21G28    30.12F
MOUNT IDA      SUNNY     44  15  31 NW14G39   30.06F
$$

ARZ009-017-025-026-028-081700-
NORTHEAST ARKANSAS

CITY           SKY/WX    TMP DP  RH WIND       PRES   REMARKS
CORNING        FAIR      39  19  45 NW28G36   29.93S
JONESBORO      CLOUDY    39  23  52 NW18G29   29.95R
NEWPORT        CLOUDY    42  21  43 NW21G28   29.99R
WALNUT RIDGE   CLOUDY    41  18  38 NW26G35   29.96R
BLYTHEVILLE    PTSUNNY   44  21  40 NW28G40   29.92R
NW BLYTHEVILLE PTSUNNY   41  19  42 NW29G41   29.92R
$$

ARZ022-023-033-042-044-081700-
CENTRAL ARKANSAS

CITY           SKY/WX    TMP DP  RH WIND       PRES   REMARKS
LITTLE ROCK    MOSUNNY   44  18  35 NW20G25   30.06R
N LITTLE ROCK  MOSUNNY   42  21  42 NW12G23   30.06R
SEARCY         PTSUNNY   43  19  38 NW14G26   30.03S
HOT SPRINGS    SUNNY     44  16  32 NW18G31   30.08S
RUSSELLVILLE   SUNNY     43  15  32 NW25G38   30.05S
CLINTON        CLOUDY    41  18  38 NW10G23   30.03S
$$

ARZ036-081700-
EAST ARKANSAS

CITY           SKY/WX    TMP DP  RH WIND       PRES   REMARKS
WEST MEMPHIS   MOSUNNY   43  25  49 NW16G32   29.97R
$$

ARZ050-053-066-070-073-081700-
SOUTHWEST ARKANSAS

CITY           SKY/WX    TMP DP  RH WIND       PRES   REMARKS
ARKADELPHIA    FAIR      47  18  31 NW21G35   30.13R
CAMDEN         LGT RAIN  48  14  25 NW18G26   30.12S
TEXARKANA      SUNNY     46  17  31 NW26G39   30.18S
EL DORADO      SUNNY     46  15  28 NW20G40   30.14R
DE QUEEN       SUNNY     46  20  35 NW17G26   30.17S
$$

ARZ056-057-069-081700-
SOUTHEAST ARKANSAS

CITY           SKY/WX    TMP DP  RH WIND       PRES   REMARKS
PINE BLUFF     MOSUNNY   44  18  35 NW22G36   30.06S
STUTTGART      CLOUDY    45  21  39 NW26      30.03S
MONTICELLO     SUNNY     47  19  33 NW17G33   30.06R

$$






USA.gov is the U.S. government's official web portal to all federal, state and local government web resources and services.